Location: Serin Observatory
(40.5200°N, 74.4500°W)
Time: 00:16:24
(UTC+00:00)

SL-8 R/B - Visible Passes

Search period start: 03 December 2016 00:00
Search period end: 13 December 2016 00:00
Orbit: 657 x 668 km, 48.4° (Epoch: 02 December)

Date Brightness Start Highest point End Pass type
(mag) Time Alt. Az. Time Alt. Az. Time Alt. Az.
03 Dec 4.6 22:23:23 10° SSW 22:27:40 34° SE 22:31:02 15° E visible
04 Dec 4.5 00:05:20 10° WSW 00:09:02 48° WNW 00:09:02 48° WNW visible
04 Dec 3.6 22:53:50 10° SW 22:58:36 76° SSE 23:00:58 30° ENE visible
05 Dec 5.9 00:36:58 10° W 00:38:58 22° WNW 00:38:58 22° WNW visible
05 Dec 4.0 23:25:05 10° WSW 23:29:47 57° NNW 23:30:50 46° NNE visible
06 Dec 6.8 01:08:43 10° WNW 01:08:49 11° WNW 01:08:49 11° WNW visible
06 Dec 3.7 22:13:33 10° SW 22:18:19 81° SSE 22:22:40 13° ENE visible
06 Dec 4.8 23:56:44 10° W 00:00:39 36° NNW 00:00:39 36° NNW visible
07 Dec 4.1 22:44:50 10° WSW 22:49:31 55° NNW 22:52:28 22° NE visible
08 Dec 5.8 00:28:29 10° WNW 00:30:27 21° NW 00:30:27 21° NW visible
08 Dec 4.6 23:16:31 10° W 23:20:57 37° NNW 23:22:14 31° NNE visible
09 Dec 6.7 01:00:00 10° WNW 01:00:13 11° NW 01:00:13 11° NW visible
09 Dec 4.2 22:04:35 10° W 22:09:15 52° NNW 22:13:57 10° NE visible
09 Dec 4.9 23:48:14 10° WNW 23:52:00 30° NNW 23:52:00 30° NNW visible
10 Dec 4.6 22:36:17 10° W 22:40:42 36° NNW 22:43:46 17° NE visible
11 Dec 5.7 00:19:44 10° WNW 00:21:46 22° NW 00:21:46 22° NW visible
11 Dec 4.8 23:08:00 10° WNW 23:12:16 31° N 23:13:33 27° NNE visible
12 Dec 6.5 00:50:58 10° NW 00:51:32 13° NW 00:51:32 13° NW visible
12 Dec 4.7 21:56:03 10° WNW 22:00:27 35° N 22:04:51 10° NE visible
12 Dec 4.7 23:39:28 10° NW 23:43:21 33° N 23:43:21 33° N visible
